Weather in Igorevskaya

Russia / Smolensk Oblast     55°27′29″N   33°17′27″E
В апреле 2022 года жителям России запретили посещать сайт meteo.paraplan.net по решению Генеральной прокуратуры. Аудитория сайта уменьшилась в 10 раз. Владельцы сайта не видят смысла в поддержке погодного сервера в таких условиях. Сайт будет закрыт в октябре.
temp.,
°C
wind,
m/s
gust,
m/s
humid.,
%
clouds,
%
prec.,
mm/h
press.,
hPa
HPBL,
m
25 september, sun
sun2500:00+6nnw61195100 2.9 10031010
03:00+6nw61095100 5.3 10031020
06:00+6nw51196100 0.5 1003874
09:00+6wnw51196100 0.6 1004760
12:00+6wnw5996100 2.3 1005959
15:00+6wnw5896100 3.0 1006990
18:00+6wnw4895100 1.5 1008943
21:00+6nw3994100 1.6 1008970
26 september, mon
mon2600:00+6w3896100 0.1 1009728
03:00+6w3896100 0.2 1009553
06:00+5w259798 0.0 1010209
09:00+7w2489100 0.0 1010259
12:00+8wsw248392 0.0 1011320
15:00+12w355776 0.1 10101541
18:00+9wsw1173100 0.1 101113
21:00+8sw1177100 0.1 101114
27 september, tue
tue2700:00+8wsw118092 0.0 101126
03:00+8ssw1182100 0.0 101121
06:00+7w1187100 0.0 101015
09:00+9ssw0184100 0.0 101077
12:00+10sse1280100 0.4 1010341
15:00+10s2483100 0.9 1010405
18:00+9ese2492100 0.1 1009145
21:00+8e2792100 0.1 1009199
28 september, wed
wed2800:00+8e3990100 0.0 1008393
03:00+6e4129473 0.0 1007440
06:00+6ene51391100 0.0 1006518
09:00+6ene51395100 1.4 1003621
12:00+7ene51296100 2.3 1002627
15:00+7ene51097100 6.0 1000530
18:00+7ene3798100 2.9 1000384
21:00+8ene1399100 4.4 1001125
29 september, thu
thu2900:00+8wsw2699100 0.2 1002320
03:00+7wsw379898 0.2 1004421
06:00+7wsw2698100 0.0 1006358
09:00+8wsw3795100 0.0 1009428
12:00+9sw368665 0.0 1011674
15:00+14ssw3565100 0.0 10111038
18:00+11sse268390 0.0 1013137
21:00+9sse399190 0.0 1015207